Location: Dittelbrunn
(50.0738°N, 10.2196°E)
Time: 22:36:41
(UTC+00:00)

CSL-04 Rocket - Pass Details

Date: 18 September 2020
Orbit: 806 x 860 km, 98.9° (Epoch: 31 October)

Event Time Altitude Azimuth Distance (km) Brightness Sun altitude
Rises 18:26:18 0° 173° (S) 3,356 6.6 -10.5°
Reaches altitude 10° 18:28:40 10° 177° (S) 2,435 5.9 -10.9°
Maximum altitude 18:34:01 63° 258° (WSW) 942 4.2 -11.7°
Drops below altitude 10° 18:39:29 10° 339° (NNW) 2,487 6.7 -12.5°
Sets 18:41:55 0° 343° (NNW) 3,434 7.4 -12.9°
